Location: Foligno
(42.9600°N, 12.7050°E)
Time: 11:58:38
(UTC+02:00)

ISS - Pass Details

Date: 15 July 2018
Orbit: 402 x 408 km, 51.6° (Epoch: 21 July)

Event Time Altitude Azimuth Distance (km) Brightness Sun altitude
Rises 04:58:47 0° 305° (NW) 2,334 -0.1 -7.5°
Reaches altitude 10° 05:01:05 10° 318° (NW) 1,472 -1.0 -7.2°
Maximum altitude 05:03:56 26° 18° (NNE) 841 -1.5 -6.8°
Drops below altitude 10° 05:06:47 10° 78° (ENE) 1,470 0.2 -6.4°
Sets 05:09:05 0° 91° (E) 2,329 0.9 -6.1°
